Hourly Data Report for August 02, 2021

LYNN LAKE
MANITOBA
Current Station Operator: NAVCAN

56°51'50.000" N
101°04'34.000" W
356.60 m
5061645
71078
YYL

Download Data

Hourly Data (August 2021)
Hourly Data Report for August 2, 2021
TIME
LST
Temp Definition
°C
Dew Point Definition
°C
Rel Hum Definition
%
Precip. Amount Definition
mm

Wind Dir Definition
10's deg

Wind Spd Definition
km/h
Visibility Definition
km
Stn Press Definition
kPa
Hmdx Definition


Wind Chill Definition


Weather Definition


00:00 16.7 11.9 73 0.0 28 11 16.1 97.36     LegendNANA
01:00 16.2 12.0 76 0.0 28 9 16.1 97.37     LegendNANA
02:00 16.1 12.4 79 0.0 28 11 16.1 97.36     LegendNANA
03:00 14.0 11.8 87 0.0 35 4 16.1 97.42     LegendNANA
04:00 13.6 11.7 88 0.0 34 9 16.1 97.42     LegendNANA
05:00 13.9 12.1 89 0.0 LegendMM 4 16.1 97.42     LegendNANA
06:00 12.9 11.6 92 0.0 5 8 16.1 97.46     LegendNANA
07:00 17.3 13.3 77 0.0 5 11 14.5 97.49     LegendNANA
08:00 19.2 13.6 70 0.0 8 18 4.8 97.51     Haze
09:00 20.9 13.7 63 0.0 7 9 4.8 97.53     Haze
10:00 22.3 11.6 50 0.0 7 15 16.1 97.53     LegendNANA
11:00 23.6 12.2 48 0.0 9 11 16.1 97.54 26   LegendNANA
12:00 24.5 11.1 42 0.0 6 18 16.1 97.52 26   LegendNANA
13:00 25.8 11.1 39 0.0 7 17 16.1 97.50 28   LegendNANA
14:00 26.2 10.9 38 0.0 11 13 16.1 97.48 28   LegendNANA
15:00 26.4 10.5 36 0.0 17 9 16.1 97.46 28   LegendNANA
16:00 26.6 9.6 34 0.0 LegendMM 5 16.1 97.44 28   LegendNANA
17:00 26.3 9.2 34 0.0 LegendMM 5 16.1 97.40 27   LegendNANA
18:00 26.3 9.8 35 0.0 LegendMM 5 16.1 97.38 27   LegendNANA
19:00 25.7 9.4 35 0.0 5 5 16.1 97.35 27   LegendNANA
20:00 24.3 11.0 43 0.0 13 5 16.1 97.35 26   LegendNANA
21:00 21.4 11.8 54 0.0 20 8 16.1 97.36     LegendNANA
22:00 20.0 11.9 59 0.0 21 9 16.1 97.36     LegendNANA
23:00 18.3 11.7 65 0.0 21 9 16.1 97.35     LegendNANA

Notes on Data Quality.

Legend

  • E = Estimated
  • M = Missing
  • NA = Not Available*
  • [empty] = Indicates an unobserved value
Date modified: